Regional Weather Roundup
Issued by NWS Sioux Falls, SD

Home | Current Version | Previous Version | Graphics & Text | Print | Product List | Glossary On
Versions: 1 2 3 4 5 6 7 8 9 10 11 12 13 14 15 16 17 18 19 20 21 22 23 24 25 26 27 28 29 30 31 32 33 34 35 36 37 38 39 40 41 42 43 44 45 46 47 48 49 50
000
ASUS43 KFSD 251202
RWRFSD

WEATHER ROUNDUP FOR SE SOUTH DAKOTA/SW MINNESOTA/NW IOWA
NATIONAL WEATHER SERVICE SIOUX FALLS SD
600 AM CST SUN JAN 25 2015

NOTE: "FAIR" INDICATES FEW OR NO CLOUDS BELOW 12,000 FEET WITH NO
SIGNIFICANT WEATHER AND OR OBSTRUCTIONS TO VISIBILITY.


SDZ038>040-050-052>070-251300-
SOUTHEAST SOUTH DAKOTA

CITY           SKY/WX    TMP DP  RH WIND       PRES   REMARKS
CHAMBERLAIN    NOT AVBL
HURON          CLOUDY    30  29  96 NW12      29.93R WCI  20
6HR MIN TEMP:  30; 6HR MAX TEMP:  32; 6HR PCP: TRACE;

MADISON        LGT RAIN  32  32 100 N16       29.86R WCI  21
MITCHELL       CLOUDY    32  30  92 NW15      29.93R WCI  22
6HR MIN TEMP:  32; 6HR MAX TEMP:  34; 6HR PCP: TRACE;

SIOUX FALLS    CLOUDY    33  32  96 N13       29.85R WCI  24
6HR MIN TEMP:  33; 6HR MAX TEMP:  33; 6HR PCP:  0.02;

WINNER         CLOUDY    39  31  72 NW23G31   29.95R
YANKTON        CLOUDY    34  28  80 NW20      29.89R WCI  22
$$

MNZ071-072-080-081-089-090-097-098-251300-
SOUTHWEST MINNESOTA

CITY           SKY/WX    TMP DP  RH WIND       PRES   REMARKS
FAIRMONT       CLOUDY    34  28  80 N14       29.79R WCI  24
JACKSON        MIX PCPN  32  32 100 N18G24    29.80R WCI  20
LUVERNE        CLOUDY    34  32  93 N8G16     29.84R WCI  27
MARSHALL       CLOUDY    32  28  86 N12       29.88R WCI  23
6HR MIN TEMP:  32; 6HR MAX TEMP:  32;

MONTEVIDEO     CLOUDY    32  32 100 E8        29.90R WCI  25
PIPESTONE      CLOUDY    32  30  93 NE12      29.83R WCI  23
REDWOOD FALLS  CLOUDY    31  28  89 NE9       29.86R WCI  23
TRACY          CLOUDY    32  32  99 N16       29.85R WCI  21
WINDOM         CLOUDY    30  30 100 N16       29.82R WCI  19
WORTHINGTON    CLOUDY    32  28  86 N15       29.81R WCI  22
$$

IAZ001>003-012>014-020>022-031-032-NEZ013-014-SDZ071-251300-
NORTHWEST IOWA

CITY           SKY/WX    TMP DP  RH WIND       PRES   REMARKS
ESTHERVILLE    LGT SNOW  32  31  96 N17G25    29.77R FOG     WCI  21
SIOUX CITY     MIX PCPN  35  32  88 N17       29.80R WCI  25
6HR MIN TEMP:  34; 6HR MAX TEMP:  41; 6HR PCP:  0.06;

SPENCER        LGT SNOW  34  31  88 N20       29.77R FOG     WCI  23
6HR MIN TEMP:  34; 6HR MAX TEMP:  35; 6HR PCP:  0.02;

$$

ABBREVIATIONS USED IN REMARKS
   TC - TEMPERATURE IN CELSIUS
  WCI - WIND CHILL INDEX
   HX - HEAT INDEX
  VSB - VISIBILITY




USA.gov is the U.S. government's official web portal to all federal, state and local government web resources and services.